Wind_Speed
13 14 14 11 11 11 12 14 17 18 18 15 12 9 9 10 9 10 10 13 13 11 13 13 13 13 13 14 15 16 15 17 18
10 12 10 10 10 10 11 12 16 18 17 15 12 10 10 10 7 7 9 9 9 9 11 12 12 11 12 12 14 13 15 15 15
8 11 11 10 9 9 9 10 15 17 16 13 10 10 11 9 6 10 11 6 8 9 10 11 10 10 10 11 11 11 12 13 13
9 11 12 10 10 9 8 9 12 16 15 12 9 12 10 8 7 10 8 6 8 8 8 7 8 8 8 9 9 10 10 10 11
11 11 12 11 10 9 8 9 10 13 15 14 10 9 10 9 7 7 10 8 8 7 7 6 6 6 6 7 7 7 8 8 8
15 14 14 13 12 11 9 10 9 11 14 15 12 11 10 10 9 6 6 8 8 7 6 6 5 4 4 4 5 5 5 5 6
16 16 15 15 13 12 10 10 10 11 14 17 15 13 9 9 12 8 6 9 8 7 6 5 4 4 3 3 2 3 2 2 3
17 17 18 18 16 16 14 13 13 12 14 17 18 15 11 9 13 10 7 9 10 9 7 6 6 5 4 3 2 1 1 0 1
22 22 22 21 21 20 19 17 15 14 14 16 19 17 14 12 15 13 9 10 11 10 9 8 7 6 6 5 4 3 3 3 3
25 25 25 25 24 23 22 21 18 17 16 16 20 18 16 14 17 16 12 10 12 11 11 10 9 8 7 7 6 6 6 5 6
30 29 29 28 28 26 25 24 22 21 20 19 18 20 18 15 17 19 15 13 13 14 13 12 12 11 10 9 9 8 9 8 9
31 32 33 33 31 29 27 26 24 23 23 24 22 20 20 19 19 20 18 16 16 15 17 16 14 13 13 12 11 10 12 11 10
36 35 35 35 35 31 31 29 28 26 25 27 26 24 24 23 22 21 21 20 19 18 18 18 18 16 15 14 13 13 12 11 11
34 37 37 36 35 33 33 32 31 30 29 29 27 26 25 26 25 25 24 23 23 22 20 19 18 18 18 17 16 15 15 14 13
30 33 37 38 37 33 33 33 34 33 32 31 29 31 27 26 29 27 27 27 27 25 24 22 21 20 19 19 18 18 17 17 16
28 30 33 35 35 37 36 33 31 35 34 29 26 28 29 28 29 30 30 31 31 29 28 26 25 23 21 21 20 19 19 18 17
32 29 30 31 34 33 32 31 28 26 32 21 6 3 14 29 33 32 33 34 32 32 33 31 29 26 25 23 22 21 20 20 18
36 34 30 32 29 34 32 31 32 24 28 33 14 2 5 3 25 39 38 37 36 36 34 33 32 31 29 27 24 24 22 21 21
31 35 35 32 32 31 33 36 32 31 22 24 32 23 8 4 2 18 32 41 40 40 38 37 36 34 31 31 29 26 25 24 24
27 30 33 35 32 31 33 28 34 34 31 25 24 25 22 12 4 3 6 29 38 43 43 40 39 37 33 32 31 30 28 26 26
Wind_Direction
135 137 140 135 131 128 125 126 133 135 132 127 120 110 121 126 113 116 103 97 96 91 100 93 89 85 81 77 73 72 68 66 67
148 150 147 142 140 135 134 130 139 145 142 137 128 132 138 134 122 123 116 100 93 93 94 91 87 87 82 80 77 72 74 71 69
171 165 162 155 150 146 143 140 147 153 152 148 136 137 145 146 134 132 115 119 98 103 93 93 91 89 82 81 80 77 75 73 72
196 183 178 171 164 160 157 153 153 161 164 158 141 145 157 150 137 143 132 131 128 126 124 106 108 106 99 94 89 83 80 77 76
197 195 191 187 179 175 171 169 165 168 174 169 155 162 166 161 151 152 164 162 144 137 134 125 121 117 112 103 97 92 85 79 76
201 201 200 202 199 192 189 186 181 178 179 179 171 171 173 187 186 175 168 169 163 167 165 155 151 151 138 123 114 108 98 88 79
210 209 204 208 216 212 204 199 193 190 187 187 186 187 192 201 199 201 200 195 183 186 188 186 183 183 176 157 142 129 113 86 72
214 212 210 206 215 216 214 209 208 203 199 195 193 198 212 215 204 209 221 211 197 200 206 208 207 211 214 207 210 230 241 324 360
218 216 215 214 211 217 218 219 216 213 211 205 205 211 216 219 216 215 235 231 218 213 220 222 225 229 234 239 240 253 262 273 286
225 223 221 219 215 218 220 223 223 220 214 210 212 216 227 232 225 220 236 244 235 233 231 231 234 238 246 256 264 272 276 279 283
228 228 226 224 220 222 224 225 225 226 223 219 216 221 231 238 232 224 236 243 247 243 245 239 238 239 242 249 260 270 274 281 288
234 231 231 229 225 226 227 228 229 233 231 230 230 231 229 241 232 227 239 242 245 248 248 248 244 243 244 246 254 269 277 283 290
243 236 233 232 229 228 229 229 226 228 230 232 233 238 236 241 235 233 238 242 246 252 252 252 252 250 247 250 255 263 271 280 279
249 243 239 234 234 232 232 230 229 228 230 232 236 239 239 237 232 241 240 244 249 254 255 255 258 255 255 252 252 256 261 265 266
256 242 244 242 237 231 228 227 229 231 234 234 239 236 239 240 235 240 245 247 248 252 254 253 254 255 258 258 259 258 261 266 266
264 250 241 239 231 232 228 223 224 230 232 231 233 236 238 239 240 241 241 243 246 248 251 252 255 259 261 261 261 264 263 265 265
258 260 249 235 233 232 229 220 220 228 225 212 200 224 246 243 239 241 241 241 243 247 249 249 251 257 262 264 261 260 262 265 265
254 255 256 250 238 228 227 224 221 222 222 216 198 160 223 209 234 237 241 241 242 245 247 248 250 256 259 262 262 260 259 262 263
260 255 255 256 248 244 231 230 225 223 222 223 221 216 172 190 280 235 237 240 242 244 246 248 252 253 254 256 262 264 265 266 263
264 258 254 254 252 248 245 235 227 226 227 215 220 235 218 215 171 246 247 236 242 244 246 250 251 251 253 254 259 264 267 268 266
Height
832 833 834 834 834 834 834 835 836 837 838 839 839 840 841 841 842 842 843 843 843 843 842 843 842 842 841 841 841 840 839 839 838
833 834 835 836 836 836 836 836 837 838 839 839 840 841 841 842 842 843 844 845 845 845 845 845 845 844 844 843 843 842 842 841 841
834 834 835 835 836 837 836 837 838 839 840 840 841 841 842 842 843 843 844 845 846 846 846 846 846 846 846 846 845 844 844 843 842
835 835 835 836 836 836 836 837 839 840 841 842 842 842 842 843 843 844 844 845 846 846 846 846 846 846 846 846 846 846 845 845 844
835 835 836 836 836 836 837 837 838 840 841 842 843 843 843 843 844 844 845 845 846 846 846 847 847 846 846 846 846 846 846 845 844
833 834 836 837 837 836 836 837 838 839 841 842 843 843 843 843 843 844 844 845 846 846 846 846 846 845 845 845 845 845 845 845 844
831 833 833 835 838 838 837 837 837 839 840 841 842 843 843 843 843 843 843 844 845 845 845 846 846 846 846 846 846 845 845 845 845
830 831 832 832 835 837 837 837 836 837 839 840 841 842 842 842 843 843 843 843 844 844 844 845 845 845 845 845 845 846 845 845 845
827 828 829 830 830 834 835 835 836 836 837 838 840 841 841 842 842 842 843 843 843 843 843 844 844 844 844 845 845 844 845 844 844
824 825 826 826 828 830 832 834 834 834 835 836 837 839 840 840 841 841 842 842 842 842 842 843 843 843 843 844 844 844 844 844 843
820 821 822 823 824 826 827 830 831 832 834 835 835 837 838 839 839 840 840 841 841 841 841 841 841 842 842 842 842 842 842 842 841
815 817 817 818 820 822 824 827 828 830 831 832 834 835 835 836 836 837 838 838 838 838 838 838 839 839 840 840 840 840 840 839 839
811 811 812 813 815 816 820 822 824 825 827 828 830 831 832 833 833 834 835 835 835 836 836 836 836 836 837 838 838 837 837 836 836
806 806 807 808 810 813 815 817 819 820 822 824 826 827 828 829 830 830 831 832 832 832 833 833 833 833 833 833 834 834 834 833 832
803 801 802 804 806 807 809 811 814 815 817 820 821 823 824 825 826 826 827 827 827 827 828 829 829 830 830 830 830 830 830 829 829
797 798 797 798 799 801 802 805 808 810 812 817 817 817 818 819 820 822 821 821 822 822 823 824 825 825 826 826 826 826 826 826 826
791 793 793 792 794 796 798 800 802 804 806 809 811 814 814 811 813 814 815 815 816 816 817 818 819 820 821 822 822 821 822 822 822
784 786 788 789 789 789 792 794 797 798 799 801 803 810 810 806 804 804 806 807 809 809 811 812 812 814 815 817 816 816 816 817 817
776 778 781 782 785 786 785 788 788 792 793 796 795 793 795 801 802 798 797 800 801 802 803 805 806 807 808 809 811 812 812 812 812
770 771 773 775 777 779 782 782 782 784 787 785 791 787 788 793 795 796 793 794 794 794 796 797 798 800 802 802 804 806 806 806 807